CKS1472 KDFW-PANC

Flight info

Callsign CKS1472
Flight time 6h 22m
Altitude 28000
Route LOWGN8 ADM IFI HLC BFF GTF/N0488F300 J569 YXC 51N120W 55N130W MACIE Q801 JOH WITTI WITTI5
Aircraft B763/H-SDE3FGHIM3RWXY/LB1

Departure

Time 2026-05-04 15:11
Airport Dallas Fort Worth International Airport (KDFW)

Arrival

Time 2026-05-04 21:33
Airport Ted Stevens Anchorage International Airport (PANC)
Time Latitude Longitude Altitude Speed Heading
2026-05-04 14:28 32.90279 -97.05884 614 ft 0 kts
2026-05-04 14:53 32.90284 -97.05884 613 ft 1 kts 359°
2026-05-04 14:54 32.90299 -97.05885 613 ft 2 kts 355°
2026-05-04 14:54 32.90320 -97.05888 613 ft 4 kts 353°
2026-05-04 14:54 32.90364 -97.05891 614 ft 7 kts 359°
2026-05-04 14:54 32.90418 -97.05890 616 ft 8 kts
2026-05-04 14:55 32.90481 -97.05887 617 ft 8 kts
2026-05-04 14:55 32.90518 -97.05859 618 ft 5 kts 60°
2026-05-04 14:55 32.90528 -97.05830 618 ft 2 kts 62°
2026-05-04 14:55 32.90540 -97.05810 619 ft 4 kts 49°
2026-05-04 14:56 32.90569 -97.05792 620 ft 3 kts 10°
2026-05-04 14:56 32.90575 -97.05791 620 ft 0 kts
2026-05-04 14:58 32.90576 -97.05791 620 ft 0 kts
2026-05-04 14:58 32.90583 -97.05791 620 ft 3 kts
2026-05-04 14:58 32.90614 -97.05788 620 ft 4 kts
2026-05-04 14:58 32.90653 -97.05787 621 ft 6 kts
2026-05-04 14:59 32.90709 -97.05787 621 ft 9 kts
2026-05-04 14:59 32.90790 -97.05785 621 ft 12 kts
2026-05-04 14:59 32.90951 -97.05785 620 ft 10 kts 359°
2026-05-04 15:00 32.90993 -97.05776 620 ft 3 kts 33°
2026-05-04 15:00 32.91010 -97.05743 619 ft 6 kts 75°
2026-05-04 15:00 32.91016 -97.05668 617 ft 11 kts 90°
2026-05-04 15:01 32.91015 -97.05424 612 ft 18 kts 88°
2026-05-04 15:01 32.91018 -97.05259 609 ft 21 kts 90°
2026-05-04 15:01 32.91015 -97.05067 604 ft 24 kts 91°
2026-05-04 15:01 32.91013 -97.04868 598 ft 24 kts 89°
2026-05-04 15:02 32.91012 -97.04669 595 ft 23 kts 91°
2026-05-04 15:02 32.91010 -97.04481 595 ft 21 kts 91°
2026-05-04 15:02 32.91008 -97.04311 594 ft 19 kts 91°
2026-05-04 15:02 32.91007 -97.04151 592 ft 19 kts 90°
2026-05-04 15:03 32.91007 -97.04007 591 ft 16 kts 91°
2026-05-04 15:03 32.91006 -97.03873 591 ft 14 kts 91°
2026-05-04 15:03 32.91007 -97.03766 591 ft 11 kts 89°
2026-05-04 15:03 32.91008 -97.03679 591 ft 9 kts 90°
2026-05-04 15:04 32.91007 -97.03571 589 ft 18 kts 90°
2026-05-04 15:04 32.91007 -97.03429 588 ft 13 kts 92°
2026-05-04 15:04 32.91005 -97.03326 588 ft 10 kts 90°
2026-05-04 15:04 32.91009 -97.03237 584 ft 10 kts 72°
2026-05-04 15:05 32.91066 -97.03190 582 ft 9 kts
2026-05-04 15:05 32.91135 -97.03188 582 ft 12 kts
2026-05-04 15:05 32.91282 -97.03186 580 ft 29 kts 359°
2026-05-04 15:05 32.91416 -97.03187 577 ft 7 kts
2026-05-04 15:06 32.91465 -97.03187 576 ft 6 kts
2026-05-04 15:06 32.91511 -97.03186 576 ft 6 kts
2026-05-04 15:06 32.91544 -97.03172 575 ft 3 kts 42°
2026-05-04 15:07 32.91557 -97.03120 574 ft 0 kts 90°
2026-05-04 15:08 32.91557 -97.03110 574 ft 3 kts 91°
2026-05-04 15:08 32.91557 -97.03067 573 ft 7 kts 89°
2026-05-04 15:08 32.91550 -97.03004 572 ft 5 kts 122°
2026-05-04 15:09 32.91528 -97.02988 572 ft 0 kts 173°
2026-05-04 15:09 32.91526 -97.02988 572 ft 0 kts 179°
2026-05-04 15:10 32.91521 -97.02988 572 ft 6 kts 181°
2026-05-04 15:10 32.91249 -97.02991 575 ft 73 kts 180°
2026-05-04 15:10 32.89352 -97.03003 979 ft 173 kts 182°
2026-05-04 15:11 32.88256 -97.03017 2091 ft 163 kts 185°
2026-05-04 15:11 32.87056 -97.03019 2602 ft 178 kts 183°
2026-05-04 15:11 32.85774 -97.02975 3123 ft 195 kts 175°
2026-05-04 15:11 32.84428 -97.02451 3655 ft 215 kts 163°
2026-05-04 15:12 32.83000 -97.01778 4257 ft 227 kts 163°
2026-05-04 15:12 32.81522 -97.01075 4990 ft 235 kts 163°
2026-05-04 15:12 32.79916 -97.00304 5470 ft 257 kts 161°
2026-05-04 15:12 32.78437 -96.99069 6188 ft 277 kts 133°
2026-05-04 15:13 32.77502 -96.97027 7019 ft 287 kts 112°
2026-05-04 15:13 32.76825 -96.94813 7852 ft 292 kts 107°
2026-05-04 15:13 32.76611 -96.92368 8514 ft 303 kts 86°
2026-05-04 15:13 32.76692 -96.89883 9348 ft 308 kts 86°
2026-05-04 15:14 32.76820 -96.87307 10046 ft 314 kts 74°
2026-05-04 15:14 32.77616 -96.84948 10696 ft 317 kts 50°
2026-05-04 15:14 32.79138 -96.83023 11122 ft 326 kts 30°
2026-05-04 15:14 32.81155 -96.81744 11548 ft 335 kts 13°
2026-05-04 15:15 32.83475 -96.81199 11996 ft 346 kts
2026-05-04 15:15 32.85927 -96.80812 12444 ft 362 kts 359°
2026-05-04 15:15 32.88475 -96.80819 12919 ft 373 kts 353°
2026-05-04 15:16 32.93722 -96.80885 14603 ft 379 kts 354°
2026-05-04 15:16 32.96346 -96.81109 15200 ft 383 kts 345°
2026-05-04 15:16 33.01194 -96.83373 16710 ft 378 kts 323°
2026-05-04 15:17 33.03286 -96.85255 17405 ft 380 kts 318°
2026-05-04 15:17 33.07475 -96.89153 18922 ft 383 kts 319°
2026-05-04 15:17 33.09592 -96.91138 19477 ft 389 kts 319°
2026-05-04 15:18 33.11701 -96.93129 20227 ft 389 kts 318°
2026-05-04 15:18 33.13823 -96.95139 20900 ft 391 kts 318°
2026-05-04 15:18 33.15975 -96.97179 21486 ft 395 kts 318°
2026-05-04 15:19 33.20274 -97.01265 22768 ft 397 kts 318°
2026-05-04 15:19 33.22443 -97.03329 23250 ft 401 kts 318°
2026-05-04 15:19 33.26806 -97.07484 24332 ft 405 kts 317°
2026-05-04 15:20 33.28999 -97.09576 25001 ft 404 kts 317°
2026-05-04 15:20 33.31189 -97.11668 25360 ft 409 kts 318°
2026-05-04 15:20 33.33429 -97.13806 25914 ft 409 kts 317°
2026-05-04 15:20 33.35650 -97.15929 26338 ft 411 kts 317°
2026-05-04 15:21 33.37884 -97.18066 26785 ft 412 kts 317°
2026-05-04 15:21 33.40097 -97.20183 27126 ft 415 kts 317°
2026-05-04 15:21 33.44083 -97.24309 27880 ft 410 kts 309°
2026-05-04 15:22 33.45794 -97.26987 27941 ft 409 kts 300°
2026-05-04 15:22 33.47153 -97.29999 27940 ft 411 kts 297°
2026-05-04 15:22 33.49775 -97.36041 27923 ft 410 kts 297°
2026-05-04 15:23 33.51078 -97.39062 27923 ft 409 kts 297°
2026-05-04 15:23 33.52380 -97.42098 27927 ft 410 kts 297°
2026-05-04 15:23 33.53677 -97.45134 27916 ft 411 kts 296°
2026-05-04 15:23 33.54982 -97.48190 27917 ft 410 kts 297°
2026-05-04 15:24 33.57555 -97.54239 27911 ft 410 kts 297°
2026-05-04 15:24 33.60142 -97.60336 27916 ft 409 kts 296°
2026-05-04 15:25 33.61427 -97.63372 27900 ft 409 kts 297°
2026-05-04 15:25 33.62712 -97.66412 27913 ft 409 kts 296°
2026-05-04 15:25 33.64000 -97.69455 27918 ft 410 kts 296°
2026-05-04 15:26 33.66560 -97.75517 27921 ft 409 kts 296°
2026-05-04 15:26 33.67841 -97.78559 27908 ft 410 kts 296°
2026-05-04 15:26 33.70416 -97.84676 27909 ft 410 kts 296°
2026-05-04 15:27 33.71691 -97.87706 27902 ft 411 kts 296°
2026-05-04 15:27 33.74265 -97.93841 27905 ft 410 kts 296°
2026-05-04 15:28 33.76822 -97.99940 27895 ft 410 kts 296°
2026-05-04 15:28 33.78093 -98.02976 27895 ft 411 kts 296°
2026-05-04 15:28 33.80654 -98.09105 27899 ft 408 kts 296°
2026-05-04 15:29 33.81913 -98.12120 27901 ft 408 kts 296°
2026-05-04 15:30 33.86999 -98.24332 27901 ft 409 kts 296°
2026-05-04 15:30 33.90786 -98.33453 27888 ft 409 kts 296°
2026-05-04 15:31 33.93311 -98.39548 27889 ft 409 kts 296°
2026-05-04 15:31 33.94585 -98.42626 27882 ft 409 kts 296°
2026-05-04 15:32 33.98385 -98.51826 27874 ft 410 kts 296°
2026-05-04 15:32 34.00917 -98.57971 27864 ft 409 kts 296°
2026-05-04 15:33 34.03422 -98.64065 27868 ft 410 kts 296°
2026-05-04 15:34 34.07212 -98.73299 27874 ft 408 kts 295°
2026-05-04 15:34 34.08457 -98.76337 27869 ft 409 kts 295°
2026-05-04 15:34 34.10974 -98.82491 27868 ft 409 kts 296°
2026-05-04 15:35 34.13485 -98.88639 27874 ft 408 kts 296°
2026-05-04 15:35 34.14733 -98.91699 27872 ft 409 kts 295°
2026-05-04 15:35 34.15984 -98.94766 27863 ft 409 kts 295°
2026-05-04 15:36 34.18480 -99.00903 27859 ft 407 kts 295°
2026-05-04 15:36 34.19726 -99.03967 27862 ft 408 kts 295°
2026-05-04 15:36 34.20972 -99.07040 27867 ft 409 kts 295°
2026-05-04 15:37 34.22229 -99.10139 27866 ft 409 kts 295°
2026-05-04 15:37 34.23471 -99.13203 27865 ft 408 kts 295°
2026-05-04 15:37 34.24719 -99.16283 27858 ft 408 kts 295°
2026-05-04 15:37 34.25962 -99.19362 27857 ft 408 kts 296°
2026-05-04 15:38 34.27206 -99.22437 27853 ft 409 kts 295°
2026-05-04 15:38 34.28437 -99.25486 27847 ft 409 kts 295°
2026-05-04 15:38 34.29683 -99.28577 27848 ft 408 kts 295°
2026-05-04 15:38 34.30924 -99.31654 27848 ft 409 kts 295°
2026-05-04 15:39 34.32165 -99.34740 27846 ft 408 kts 295°
2026-05-04 15:39 34.33406 -99.37820 27846 ft 408 kts 296°
2026-05-04 15:39 34.36297 -99.45017 27837 ft 408 kts 295°
2026-05-04 15:40 34.37122 -99.47076 27840 ft 408 kts 295°
2026-05-04 15:40 34.38342 -99.50121 27839 ft 408 kts 295°
2026-05-04 15:40 34.39574 -99.53198 27842 ft 407 kts 295°
2026-05-04 15:40 34.40819 -99.56308 27842 ft 407 kts 295°
2026-05-04 15:41 34.42042 -99.59368 27835 ft 409 kts 295°
2026-05-04 15:41 34.43280 -99.62472 27825 ft 410 kts 295°
2026-05-04 15:41 34.44513 -99.65558 27834 ft 408 kts 295°
2026-05-04 15:41 34.45745 -99.68649 27852 ft 407 kts 294°
2026-05-04 15:42 34.46964 -99.71713 27848 ft 406 kts 294°
2026-05-04 15:42 34.48189 -99.74791 27847 ft 407 kts 294°
2026-05-04 15:42 34.49414 -99.77872 27845 ft 407 kts 295°
2026-05-04 15:42 34.50644 -99.80969 27841 ft 408 kts 294°
2026-05-04 15:43 34.51871 -99.84064 27850 ft 407 kts 295°
2026-05-04 15:43 34.53097 -99.87155 27845 ft 406 kts 295°
2026-05-04 15:43 34.54318 -99.90241 27856 ft 405 kts 294°
2026-05-04 15:43 34.55524 -99.93285 27849 ft 407 kts 294°
2026-05-04 15:44 34.56751 -99.96391 27845 ft 408 kts 294°
2026-05-04 15:44 34.57978 -99.99498 27855 ft 408 kts 295°
2026-05-04 15:44 34.59200 -100.02597 27837 ft 407 kts 294°
2026-05-04 15:44 34.60408 -100.05661 27845 ft 406 kts 295°
2026-05-04 15:45 34.61626 -100.08758 27844 ft 407 kts 295°
2026-05-04 15:45 34.62840 -100.11837 27842 ft 407 kts 294°
2026-05-04 15:45 34.64055 -100.14930 27841 ft 407 kts 294°
2026-05-04 15:45 34.65685 -100.19083 27842 ft 408 kts 295°
2026-05-04 15:46 34.66485 -100.21121 27847 ft 407 kts 294°
2026-05-04 15:46 34.67706 -100.24234 27839 ft 406 kts 294°
2026-05-04 15:46 34.68921 -100.27338 27842 ft 407 kts 294°
2026-05-04 15:46 34.70137 -100.30448 27841 ft 407 kts 294°
2026-05-04 15:47 34.71339 -100.33521 27837 ft 406 kts 294°
2026-05-04 15:47 34.72551 -100.36624 27839 ft 406 kts 295°
2026-05-04 15:47 34.73759 -100.39724 27843 ft 406 kts 294°
2026-05-04 15:47 34.75368 -100.43854 27838 ft 407 kts 294°
2026-05-04 15:48 34.76162 -100.45895 27834 ft 407 kts 294°
2026-05-04 15:48 34.77383 -100.49030 27830 ft 408 kts 294°
2026-05-04 15:48 34.79785 -100.55214 27831 ft 406 kts 294°
2026-05-04 15:49 34.80989 -100.58321 27830 ft 406 kts 295°
2026-05-04 15:49 34.82202 -100.61449 27832 ft 407 kts 294°
2026-05-04 15:49 34.83799 -100.65572 27835 ft 407 kts 294°
2026-05-04 15:49 34.84603 -100.67651 27857 ft 407 kts 294°
2026-05-04 15:50 34.86212 -100.71815 27859 ft 409 kts 294°
2026-05-04 15:50 34.87013 -100.73891 27867 ft 408 kts 294°
2026-05-04 15:50 34.88217 -100.77013 27866 ft 407 kts 294°
2026-05-04 15:50 34.89407 -100.80098 27861 ft 407 kts 294°
2026-05-04 15:51 34.90612 -100.83234 27876 ft 406 kts 294°
2026-05-04 15:51 34.91811 -100.86347 27874 ft 407 kts 294°
2026-05-04 15:51 34.93008 -100.89461 27878 ft 406 kts 293°
2026-05-04 15:51 34.94530 -100.93430 27879 ft 405 kts 294°
2026-05-04 15:52 34.95326 -100.95503 27882 ft 405 kts 294°
2026-05-04 15:52 34.96516 -100.98609 27895 ft 406 kts 294°
2026-05-04 15:52 34.98106 -101.02763 27883 ft 407 kts 294°
2026-05-04 15:52 34.98899 -101.04840 27895 ft 406 kts 294°
2026-05-04 15:53 35.00087 -101.07949 27889 ft 406 kts 293°
2026-05-04 15:53 35.01263 -101.11029 27896 ft 406 kts 294°
2026-05-04 15:53 35.02449 -101.14140 27891 ft 405 kts 294°
2026-05-04 15:53 35.04030 -101.18289 27896 ft 406 kts 294°
2026-05-04 15:54 35.05227 -101.21435 27892 ft 405 kts 294°
2026-05-04 15:54 35.06016 -101.23510 27900 ft 404 kts 294°
2026-05-04 15:54 35.07187 -101.26592 27905 ft 405 kts 294°
2026-05-04 15:54 35.08367 -101.29702 27912 ft 405 kts 294°
2026-05-04 15:55 35.09549 -101.32823 27896 ft 406 kts 294°
2026-05-04 15:55 35.10746 -101.35975 27913 ft 405 kts 293°
2026-05-04 15:55 35.11925 -101.39095 27917 ft 407 kts 293°
2026-05-04 15:55 35.13101 -101.42208 27903 ft 407 kts 293°
2026-05-04 15:56 35.14278 -101.45323 27904 ft 406 kts 293°
2026-05-04 15:56 35.15456 -101.48444 27906 ft 405 kts 293°
2026-05-04 15:56 35.16633 -101.51568 27901 ft 407 kts 293°
2026-05-04 15:56 35.17819 -101.54718 27906 ft 407 kts 293°
2026-05-04 15:57 35.18986 -101.57821 27897 ft 406 kts 293°
2026-05-04 15:57 35.20161 -101.60945 27898 ft 404 kts 293°
2026-05-04 15:57 35.21334 -101.64069 27897 ft 403 kts 293°
2026-05-04 15:57 35.22557 -101.67182 27919 ft 404 kts 296°
2026-05-04 15:58 35.24152 -101.70027 27930 ft 410 kts 306°
2026-05-04 15:58 35.26174 -101.72498 27925 ft 419 kts 315°
2026-05-04 15:58 35.28553 -101.74633 27927 ft 422 kts 317°
2026-05-04 15:58 35.31688 -101.77425 27917 ft 421 kts 317°
2026-05-04 15:59 35.34045 -101.79537 27930 ft 420 kts 317°
2026-05-04 15:59 35.36395 -101.81661 27926 ft 420 kts 317°
2026-05-04 15:59 35.37957 -101.83076 27922 ft 421 kts 317°
2026-05-04 15:59 35.40315 -101.85220 27910 ft 424 kts 316°
2026-05-04 16:00 35.42701 -101.87393 27917 ft 424 kts 317°
2026-05-04 16:00 35.45059 -101.89542 27919 ft 420 kts 316°
2026-05-04 16:00 35.48166 -101.92382 27916 ft 422 kts 316°
2026-05-04 16:00 35.49745 -101.93829 27910 ft 424 kts 316°
2026-05-04 16:01 35.52090 -101.95978 27924 ft 424 kts 317°
2026-05-04 16:01 35.54456 -101.98146 27899 ft 421 kts 316°
2026-05-04 16:01 35.56805 -102.00302 27919 ft 422 kts 316°
2026-05-04 16:01 35.59925 -102.03172 27916 ft 425 kts 317°
2026-05-04 16:02 35.62288 -102.05342 27910 ft 423 kts 316°
2026-05-04 16:02 35.64642 -102.07510 27920 ft 422 kts 317°
2026-05-04 16:02 35.69369 -102.11867 27924 ft 425 kts 316°
2026-05-04 16:03 35.71732 -102.14047 27909 ft 425 kts 316°
2026-05-04 16:03 35.73281 -102.15475 27904 ft 425 kts 316°
2026-05-04 16:03 35.76448 -102.18402 27926 ft 424 kts 317°
2026-05-04 16:03 35.78782 -102.20561 27932 ft 425 kts 317°
2026-05-04 16:04 35.80360 -102.22020 27920 ft 425 kts 316°
2026-05-04 16:04 35.85868 -102.27121 27938 ft 425 kts 317°
2026-05-04 16:04 35.87418 -102.28559 27930 ft 425 kts 316°
2026-05-04 16:05 35.90590 -102.31503 27933 ft 426 kts 316°
2026-05-04 16:05 35.92161 -102.32963 27930 ft 426 kts 317°
2026-05-04 16:05 35.97620 -102.38036 27935 ft 423 kts 317°
2026-05-04 16:06 35.99993 -102.40249 27918 ft 427 kts 317°
2026-05-04 16:06 36.06295 -102.46121 27907 ft 426 kts 316°
2026-05-04 16:07 36.09425 -102.49046 27923 ft 426 kts 317°
2026-05-04 16:07 36.16499 -102.55662 27927 ft 425 kts 316°
2026-05-04 16:08 36.18080 -102.57143 27929 ft 427 kts 316°
2026-05-04 16:08 36.25987 -102.64563 27945 ft 427 kts 316°
2026-05-04 16:09 36.30744 -102.69033 27949 ft 427 kts 316°
2026-05-04 16:09 36.35442 -102.73457 27948 ft 426 kts 316°
2026-05-04 16:10 36.39398 -102.77189 27955 ft 428 kts 316°
2026-05-04 16:11 36.47242 -102.84597 27957 ft 428 kts 316°
2026-05-04 16:11 36.49630 -102.86858 27971 ft 429 kts 316°
2026-05-04 16:12 36.56735 -102.93591 27970 ft 428 kts 316°
2026-05-04 16:12 36.63016 -102.99559 27972 ft 427 kts 316°
2026-05-04 16:13 36.68544 -103.04824 27984 ft 428 kts 316°
2026-05-04 16:13 36.73265 -103.09322 27993 ft 427 kts 316°
2026-05-04 16:14 36.77964 -103.13813 27982 ft 430 kts 316°
2026-05-04 16:14 36.81904 -103.17579 27999 ft 427 kts 316°
2026-05-04 16:15 36.89764 -103.25116 27999 ft 428 kts 316°
2026-05-04 16:16 36.94436 -103.29601 27986 ft 425 kts 316°
2026-05-04 16:17 37.06242 -103.40975 28002 ft 429 kts 316°
2026-05-04 16:18 37.15615 -103.50037 27997 ft 426 kts 316°
2026-05-04 16:19 37.27300 -103.61485 28009 ft 425 kts 313°
2026-05-04 16:20 37.38599 -103.73591 28005 ft 426 kts 313°
2026-05-04 16:22 37.49874 -103.85704 27999 ft 430 kts 314°
2026-05-04 16:22 37.56698 -103.93053 27980 ft 432 kts 313°
2026-05-04 16:23 37.63504 -104.00405 27980 ft 431 kts 313°
2026-05-04 16:24 37.72563 -104.10220 27990 ft 431 kts 313°
2026-05-04 16:25 37.77126 -104.15178 27999 ft 434 kts 314°
2026-05-04 16:26 37.93087 -104.32575 28022 ft 431 kts 314°
2026-05-04 16:27 37.97623 -104.37541 27997 ft 437 kts 314°
2026-05-04 16:28 38.04470 -104.45049 28002 ft 435 kts 314°
2026-05-04 16:28 38.11348 -104.52608 27993 ft 433 kts 314°
2026-05-04 16:29 38.20480 -104.62682 27968 ft 436 kts 314°
2026-05-04 16:31 38.31905 -104.75330 28016 ft 436 kts 313°
2026-05-04 16:32 38.45579 -104.90541 28126 ft 435 kts 313°
2026-05-04 16:33 38.54705 -105.00737 28146 ft 437 kts 313°
2026-05-04 16:34 38.61517 -105.08374 28135 ft 436 kts 314°
2026-05-04 16:35 38.75186 -105.23754 28156 ft 438 kts 314°
2026-05-04 16:36 38.81999 -105.31449 28164 ft 439 kts 314°
2026-05-04 16:37 38.88859 -105.39217 28160 ft 436 kts 314°
2026-05-04 16:38 38.97979 -105.49580 28143 ft 442 kts 314°
2026-05-04 16:39 39.09382 -105.62588 28136 ft 440 kts 314°
2026-05-04 16:40 39.18567 -105.73109 28158 ft 442 kts 314°
2026-05-04 16:41 39.30091 -105.86363 28161 ft 445 kts 314°
2026-05-04 16:43 39.41617 -105.99683 28151 ft 445 kts 314°
2026-05-04 16:43 39.48527 -106.07697 28153 ft 448 kts 314°
2026-05-04 16:45 39.62410 -106.23865 28143 ft 450 kts 314°
2026-05-04 16:46 39.73990 -106.37421 28140 ft 451 kts 314°
2026-05-04 16:47 39.83319 -106.48389 28169 ft 451 kts 314°
2026-05-04 16:48 39.92593 -106.59334 28166 ft 453 kts 314°
2026-05-04 16:49 40.01893 -106.70351 28177 ft 453 kts 314°
2026-05-04 16:50 40.11235 -106.81462 28152 ft 455 kts 314°
2026-05-04 16:51 40.18238 -106.89819 28150 ft 456 kts 314°
2026-05-04 16:52 40.27546 -107.00965 28156 ft 457 kts 314°
2026-05-04 16:53 40.34562 -107.09394 28130 ft 458 kts 314°
2026-05-04 16:54 40.43956 -107.20721 28084 ft 460 kts 314°
2026-05-04 16:55 40.57880 -107.37888 28062 ft 459 kts 313°
2026-05-04 16:56 40.69374 -107.52483 28072 ft 463 kts 314°
2026-05-04 16:57 40.76298 -107.61308 28081 ft 462 kts 314°
2026-05-04 16:58 40.85512 -107.73095 28064 ft 464 kts 314°
2026-05-04 17:00 40.99384 -107.90926 28054 ft 466 kts 314°
2026-05-04 17:01 41.10947 -108.05884 28037 ft 466 kts 314°
2026-05-04 17:02 41.20168 -108.17861 28036 ft 467 kts 314°
2026-05-04 17:03 41.27080 -108.26879 28049 ft 466 kts 315°
2026-05-04 17:03 41.34002 -108.35931 28047 ft 464 kts 314°
2026-05-04 17:04 41.43177 -108.47974 28046 ft 464 kts 314°
2026-05-04 17:05 41.52367 -108.60091 28045 ft 465 kts 314°
2026-05-04 17:06 41.59270 -108.69223 28055 ft 466 kts 314°
2026-05-04 17:07 41.64615 -108.76318 28049 ft 465 kts 314°
2026-05-04 17:07 41.70717 -108.84437 28054 ft 466 kts 314°
2026-05-04 17:08 41.77591 -108.93608 28059 ft 464 kts 314°
2026-05-04 17:09 41.82143 -108.99700 28069 ft 466 kts 314°
2026-05-04 17:09 41.86708 -109.05823 28067 ft 467 kts 314°
2026-05-04 17:10 41.98137 -109.21206 28051 ft 465 kts 314°
2026-05-04 17:11 42.02687 -109.27355 28045 ft 466 kts 314°
2026-05-04 17:12 42.09525 -109.36616 28045 ft 466 kts 314°
2026-05-04 17:13 42.20954 -109.52168 28043 ft 467 kts 314°
2026-05-04 17:14 42.30008 -109.64549 28048 ft 465 kts 314°
2026-05-04 17:15 42.36847 -109.73933 28056 ft 466 kts 314°
2026-05-04 17:16 42.45937 -109.86459 28054 ft 468 kts 314°
2026-05-04 17:17 42.55002 -109.99003 28033 ft 468 kts 314°
2026-05-04 17:18 42.64049 -110.11579 28018 ft 467 kts 314°
2026-05-04 17:19 42.73095 -110.24210 28054 ft 468 kts 315°
2026-05-04 17:20 42.82148 -110.36906 28067 ft 468 kts 315°
2026-05-04 17:20 42.88894 -110.46404 28073 ft 468 kts 315°
2026-05-04 17:21 42.97924 -110.59167 28065 ft 468 kts 315°
2026-05-04 17:22 43.02429 -110.65557 28061 ft 468 kts 314°
2026-05-04 17:23 43.11446 -110.78389 28062 ft 469 kts 315°
2026-05-04 17:24 43.18161 -110.87983 28047 ft 468 kts 314°
2026-05-04 17:25 43.27128 -111.00846 28047 ft 465 kts 314°
2026-05-04 17:26 43.36043 -111.13692 28046 ft 465 kts 315°
2026-05-04 17:27 43.47131 -111.29752 28041 ft 464 kts 314°
2026-05-04 17:28 43.55982 -111.42636 28022 ft 465 kts 314°
2026-05-04 17:29 43.68952 -111.61625 28008 ft 464 kts 314°
2026-05-04 17:30 43.75539 -111.71319 27957 ft 462 kts 314°
2026-05-04 17:31 43.79937 -111.77808 27909 ft 461 kts 314°
2026-05-04 17:31 43.86487 -111.87503 27906 ft 463 kts 314°
2026-05-04 17:32 43.90864 -111.93999 27926 ft 463 kts 314°
2026-05-04 17:33 43.97452 -112.03807 27958 ft 462 kts 314°
2026-05-04 17:33 43.99627 -112.07052 27947 ft 461 kts 314°
2026-05-04 17:34 44.06140 -112.16791 27946 ft 460 kts 314°
2026-05-04 17:34 44.08261 -112.20045 27946 ft 461 kts 310°
2026-05-04 17:35 44.13967 -112.30906 27968 ft 463 kts 307°
2026-05-04 17:35 44.17704 -112.38161 27979 ft 462 kts 307°
2026-05-04 17:35 44.19565 -112.41796 27987 ft 462 kts 307°
2026-05-04 17:36 44.21426 -112.45438 27985 ft 463 kts 307°
2026-05-04 17:36 44.23262 -112.49042 27988 ft 462 kts 307°
2026-05-04 17:36 44.25121 -112.52697 28003 ft 462 kts 307°
2026-05-04 17:36 44.26978 -112.56349 28000 ft 463 kts 307°
2026-05-04 17:37 44.28840 -112.60020 27986 ft 463 kts 307°
2026-05-04 17:37 44.32536 -112.67321 28000 ft 462 kts 307°
2026-05-04 17:38 44.36238 -112.74656 28016 ft 462 kts 307°
2026-05-04 17:38 44.39911 -112.81950 28023 ft 461 kts 307°
2026-05-04 17:39 44.45444 -112.92971 28022 ft 462 kts 307°
2026-05-04 17:39 44.49126 -113.00330 28033 ft 463 kts 307°
2026-05-04 17:40 44.52803 -113.07697 28035 ft 463 kts 307°
2026-05-04 17:40 44.56460 -113.15043 28036 ft 461 kts 307°
2026-05-04 17:41 44.60124 -113.22420 28035 ft 461 kts 307°
2026-05-04 17:41 44.63759 -113.29758 28028 ft 461 kts 308°
2026-05-04 17:42 44.67421 -113.37170 28024 ft 463 kts 308°
2026-05-04 17:42 44.71077 -113.44589 28014 ft 461 kts 308°
2026-05-04 17:43 44.74706 -113.51974 28016 ft 461 kts 308°
2026-05-04 17:43 44.78328 -113.59362 28014 ft 462 kts 308°
2026-05-04 17:44 44.81978 -113.66825 28020 ft 463 kts 307°
2026-05-04 17:44 44.85618 -113.74292 28025 ft 462 kts 307°
2026-05-04 17:45 44.89237 -113.81731 28022 ft 461 kts 307°
2026-05-04 17:45 44.92828 -113.89129 28018 ft 461 kts 307°
2026-05-04 17:46 44.96459 -113.96635 28017 ft 462 kts 307°
2026-05-04 17:46 45.00076 -114.04127 28021 ft 463 kts 307°
2026-05-04 17:47 45.04166 -114.11041 28392 ft 460 kts 320°
2026-05-04 17:47 45.06529 -114.14102 28714 ft 462 kts 320°
2026-05-04 17:47 45.08868 -114.17171 29147 ft 462 kts 320°
2026-05-04 17:48 45.11235 -114.20274 29653 ft 459 kts 320°
2026-05-04 17:48 45.13551 -114.23308 30048 ft 456 kts 320°
2026-05-04 17:48 45.18209 -114.29418 30033 ft 456 kts 320°
2026-05-04 17:49 45.22857 -114.35530 30032 ft 455 kts 320°
2026-05-04 17:49 45.27489 -114.41631 30039 ft 455 kts 320°
2026-05-04 17:50 45.32101 -114.47723 30042 ft 455 kts 320°
2026-05-04 17:50 45.36748 -114.53874 30045 ft 456 kts 320°
2026-05-04 17:51 45.41354 -114.59985 30035 ft 457 kts 320°
2026-05-04 17:51 45.46020 -114.66190 30027 ft 457 kts 319°
2026-05-04 17:52 45.50649 -114.72361 30024 ft 456 kts 320°
2026-05-04 17:52 45.55289 -114.78561 30023 ft 458 kts 319°
2026-05-04 17:53 45.59917 -114.84759 30020 ft 458 kts 319°
2026-05-04 17:53 45.64533 -114.90956 30010 ft 456 kts 319°
2026-05-04 17:54 45.69166 -114.97190 30002 ft 456 kts 319°
2026-05-04 17:54 45.73773 -115.03404 30000 ft 458 kts 319°
2026-05-04 17:55 45.78399 -115.09660 30001 ft 457 kts 320°
2026-05-04 17:55 45.83016 -115.15917 29995 ft 458 kts 319°
2026-05-04 17:56 45.87633 -115.22192 29992 ft 458 kts 320°
2026-05-04 17:56 45.92242 -115.28468 29978 ft 457 kts 319°
2026-05-04 17:57 45.96853 -115.34763 29980 ft 456 kts 319°
2026-05-04 17:57 46.01434 -115.41032 29968 ft 456 kts 320°
2026-05-04 17:58 46.06028 -115.47334 29958 ft 456 kts 320°
2026-05-04 17:58 46.10614 -115.53640 29945 ft 456 kts 320°
2026-05-04 17:59 46.15229 -115.60001 29946 ft 459 kts 320°
2026-05-04 18:00 46.22118 -115.69530 29933 ft 457 kts 319°
2026-05-04 18:00 46.26722 -115.75912 29934 ft 458 kts 319°
2026-05-04 18:01 46.31302 -115.82282 29925 ft 457 kts 319°
2026-05-04 18:01 46.35872 -115.88650 29919 ft 455 kts 319°
2026-05-04 18:02 46.42712 -115.98213 29908 ft 457 kts 319°
2026-05-04 18:02 46.47289 -116.04631 29910 ft 456 kts 319°
2026-05-04 18:03 46.51759 -116.10915 29913 ft 456 kts 319°
2026-05-04 18:03 46.56293 -116.17303 29908 ft 456 kts 319°
2026-05-04 18:04 46.60861 -116.23755 29912 ft 455 kts 319°
2026-05-04 18:05 46.67623 -116.33338 29913 ft 454 kts 319°
2026-05-04 18:05 46.72123 -116.39732 29918 ft 455 kts 319°
2026-05-04 18:06 46.78879 -116.49366 29914 ft 453 kts 319°
2026-05-04 18:06 46.83375 -116.55796 29909 ft 453 kts 319°
2026-05-04 18:07 46.87865 -116.62234 29905 ft 453 kts 319°
2026-05-04 18:07 46.92384 -116.68728 29898 ft 454 kts 318°
2026-05-04 18:08 46.96866 -116.75186 29891 ft 453 kts 318°
2026-05-04 18:08 47.01339 -116.81646 29890 ft 452 kts 318°
2026-05-04 18:09 47.10264 -116.94584 29880 ft 453 kts 318°
2026-05-04 18:10 47.14728 -117.01080 29885 ft 452 kts 318°
2026-05-04 18:10 47.19149 -117.07534 29888 ft 449 kts 318°
2026-05-04 18:11 47.23573 -117.14003 29884 ft 450 kts 318°
2026-05-04 18:11 47.27996 -117.20487 29885 ft 450 kts 318°
2026-05-04 18:12 47.32461 -117.27048 29885 ft 453 kts 319°
2026-05-04 18:12 47.36884 -117.33568 29883 ft 451 kts 318°
2026-05-04 18:13 47.41304 -117.40099 29891 ft 451 kts 318°
2026-05-04 18:14 47.47908 -117.49883 29888 ft 449 kts 318°
2026-05-04 18:14 47.52330 -117.56458 29885 ft 451 kts 318°
2026-05-04 18:15 47.62152 -117.67592 29889 ft 446 kts 331°
2026-05-04 18:16 47.67474 -117.72221 29878 ft 442 kts 332°
2026-05-04 18:16 47.72746 -117.76816 29877 ft 444 kts 332°
2026-05-04 18:17 47.80731 -117.83804 29882 ft 444 kts 331°
2026-05-04 18:18 47.88660 -117.90766 29880 ft 442 kts 331°
2026-05-04 18:18 47.93964 -117.95439 29881 ft 442 kts 331°
2026-05-04 18:19 48.01894 -118.02446 29894 ft 441 kts 331°
2026-05-04 18:19 48.07128 -118.07084 29885 ft 441 kts 331°
2026-05-04 18:20 48.12471 -118.11831 29904 ft 441 kts 331°
2026-05-04 18:20 48.17687 -118.16476 29897 ft 440 kts 331°
2026-05-04 18:21 48.22958 -118.21179 29891 ft 440 kts 331°
2026-05-04 18:21 48.28196 -118.25867 29896 ft 439 kts 331°
2026-05-04 18:22 48.33443 -118.30575 29907 ft 438 kts 331°
2026-05-04 18:22 48.38669 -118.35272 29916 ft 437 kts 331°
2026-05-04 18:23 48.43878 -118.39967 29930 ft 438 kts 331°
2026-05-04 18:23 48.49072 -118.44661 29935 ft 437 kts 331°
2026-05-04 18:24 48.54311 -118.49405 29944 ft 439 kts 331°
2026-05-04 18:24 48.59486 -118.54103 29951 ft 436 kts 331°
2026-05-04 18:25 48.64697 -118.58846 29950 ft 436 kts 331°
2026-05-04 18:25 48.69857 -118.63554 29946 ft 436 kts 331°
2026-05-04 18:26 48.75078 -118.68329 29940 ft 436 kts 330°
2026-05-04 18:26 48.80219 -118.73041 29927 ft 434 kts 330°
2026-05-04 18:27 48.85372 -118.77778 29926 ft 433 kts 330°
2026-05-04 18:27 48.90533 -118.82532 29946 ft 434 kts 330°
2026-05-04 18:28 48.95674 -118.87279 29938 ft 435 kts 330°
2026-05-04 18:28 49.00836 -118.92059 29932 ft 433 kts 330°
2026-05-04 18:29 49.05985 -118.96837 29921 ft 433 kts 330°
2026-05-04 18:29 49.11128 -119.01620 29941 ft 432 kts 330°
2026-05-04 18:30 49.18825 -119.08804 29950 ft 431 kts 330°
2026-05-04 18:31 49.23936 -119.13589 29985 ft 431 kts 330°
2026-05-04 18:31 49.29067 -119.18403 29993 ft 432 kts 330°
2026-05-04 18:32 49.34191 -119.23223 30001 ft 433 kts 330°
2026-05-04 18:32 49.39304 -119.28045 30002 ft 433 kts 330°
2026-05-04 18:33 49.44432 -119.32892 29993 ft 432 kts 330°
2026-05-04 18:33 49.49553 -119.37744 30002 ft 432 kts 330°
2026-05-04 18:34 49.54686 -119.42622 29982 ft 432 kts 330°
2026-05-04 18:34 49.59801 -119.47494 29983 ft 432 kts 330°
2026-05-04 18:35 49.64920 -119.52382 30006 ft 432 kts 330°
2026-05-04 18:35 49.70020 -119.57262 30006 ft 432 kts 330°
2026-05-04 18:36 49.75122 -119.62160 29999 ft 432 kts 330°
2026-05-04 18:36 49.80230 -119.67074 29988 ft 432 kts 329°
2026-05-04 18:37 49.85342 -119.72004 30000 ft 430 kts 329°
2026-05-04 18:37 49.90419 -119.76911 30008 ft 430 kts 329°
2026-05-04 18:38 49.95499 -119.81834 30027 ft 431 kts 329°
2026-05-04 18:38 50.00593 -119.86787 30021 ft 431 kts 329°
2026-05-04 18:39 50.05678 -119.91740 30027 ft 432 kts 329°
2026-05-04 18:39 50.10627 -119.96575 30024 ft 430 kts 329°
2026-05-04 18:40 50.15715 -120.01557 30027 ft 429 kts 330°
2026-05-04 18:40 50.20773 -120.06521 30028 ft 430 kts 330°
2026-05-04 18:41 50.25830 -120.11496 30022 ft 430 kts 330°
2026-05-04 18:41 50.30901 -120.16499 30016 ft 428 kts 329°
2026-05-04 18:42 50.35898 -120.21443 30019 ft 428 kts 329°
2026-05-04 18:42 50.40933 -120.26435 30002 ft 428 kts 329°
2026-05-04 18:43 50.45983 -120.31457 30008 ft 428 kts 329°
2026-05-04 18:43 50.50985 -120.36442 30004 ft 426 kts 329°
2026-05-04 18:44 50.55994 -120.41447 29993 ft 427 kts 330°
2026-05-04 18:44 50.61028 -120.46490 29991 ft 427 kts 329°
2026-05-04 18:45 50.65997 -120.51481 29981 ft 426 kts 329°
2026-05-04 18:45 50.71001 -120.56520 29975 ft 426 kts 329°
2026-05-04 18:46 50.75991 -120.61558 29968 ft 426 kts 329°
2026-05-04 18:46 50.80998 -120.66626 29981 ft 426 kts 329°
2026-05-04 18:47 50.85997 -120.71699 30000 ft 424 kts 329°
2026-05-04 18:47 50.90946 -120.76734 30009 ft 426 kts 329°
2026-05-04 18:48 50.95933 -120.81820 30018 ft 425 kts 329°
2026-05-04 18:48 51.00897 -120.86896 30024 ft 425 kts 329°
2026-05-04 18:49 51.05873 -120.91998 30024 ft 426 kts 329°
2026-05-04 18:49 51.10814 -120.97077 30026 ft 426 kts 329°
2026-05-04 18:50 51.15784 -121.02200 30030 ft 424 kts 329°
2026-05-04 18:50 51.20752 -121.07332 30030 ft 424 kts 329°
2026-05-04 18:51 51.25726 -121.12485 30030 ft 425 kts 329°
2026-05-04 18:51 51.30683 -121.17633 30027 ft 424 kts 329°
2026-05-04 18:52 51.35622 -121.22778 30028 ft 424 kts 329°
2026-05-04 18:52 51.40580 -121.27954 30028 ft 423 kts 329°
2026-05-04 18:53 51.45495 -121.33099 30023 ft 424 kts 329°
2026-05-04 18:53 51.50428 -121.38278 30031 ft 425 kts 329°
2026-05-04 18:54 51.55404 -121.43515 30021 ft 424 kts 329°
2026-05-04 18:54 51.60335 -121.48717 30019 ft 423 kts 329°
2026-05-04 18:55 51.65257 -121.53925 30015 ft 424 kts 329°
2026-05-04 18:55 51.72632 -121.61754 30013 ft 424 kts 329°
2026-05-04 18:56 51.77600 -121.67046 30015 ft 424 kts 328°
2026-05-04 18:56 51.82506 -121.72284 30010 ft 423 kts 328°
2026-05-04 18:57 51.87432 -121.77558 30010 ft 424 kts 328°
2026-05-04 18:57 51.92329 -121.82815 30011 ft 423 kts 328°
2026-05-04 18:58 51.97259 -121.88122 30011 ft 423 kts 328°
2026-05-04 18:58 52.02141 -121.93391 30013 ft 423 kts 328°
2026-05-04 18:59 52.07064 -121.98718 30015 ft 423 kts 328°
2026-05-04 18:59 52.11911 -122.03977 30036 ft 423 kts 328°
2026-05-04 19:00 52.16822 -122.09322 30030 ft 423 kts 328°
2026-05-04 19:00 52.21672 -122.14874 30024 ft 426 kts 321°
2026-05-04 19:01 52.25425 -122.22424 30028 ft 436 kts 307°
2026-05-04 19:01 52.28626 -122.30830 30019 ft 435 kts 306°
2026-05-04 19:02 52.31745 -122.39291 30026 ft 435 kts 306°
2026-05-04 19:02 52.34828 -122.47801 30028 ft 436 kts 306°
2026-05-04 19:03 52.37894 -122.56351 30026 ft 435 kts 306°
2026-05-04 19:03 52.40935 -122.64881 30030 ft 437 kts 306°
2026-05-04 19:04 52.43979 -122.73457 30035 ft 438 kts 304°
2026-05-04 19:04 52.47057 -122.82169 30038 ft 438 kts 304°
2026-05-04 19:05 52.50106 -122.90828 30043 ft 437 kts 304°
2026-05-04 19:05 52.53163 -122.99538 30048 ft 438 kts 304°
2026-05-04 19:06 52.56181 -123.08170 30047 ft 438 kts 304°
2026-05-04 19:06 52.59215 -123.16876 30050 ft 439 kts 304°
2026-05-04 19:07 52.62250 -123.25619 30048 ft 440 kts 304°
2026-05-04 19:07 52.65266 -123.34335 30049 ft 440 kts 304°
2026-05-04 19:08 52.68304 -123.43145 30053 ft 440 kts 304°
2026-05-04 19:08 52.71309 -123.51893 30053 ft 439 kts 304°
2026-05-04 19:09 52.74324 -123.60695 30055 ft 440 kts 304°
2026-05-04 19:09 52.77309 -123.69448 30057 ft 441 kts 303°
2026-05-04 19:10 52.80309 -123.78271 30064 ft 441 kts 303°
2026-05-04 19:10 52.83333 -123.87199 30063 ft 441 kts 303°
2026-05-04 19:11 52.86339 -123.96106 30060 ft 441 kts 303°
2026-05-04 19:11 52.89321 -124.04976 30059 ft 442 kts 303°
2026-05-04 19:12 52.93787 -124.18312 30064 ft 442 kts 303°
2026-05-04 19:13 52.96771 -124.27265 30063 ft 441 kts 303°
2026-05-04 19:13 52.99764 -124.36278 30063 ft 442 kts 303°
2026-05-04 19:14 53.02714 -124.45194 30059 ft 442 kts 303°
2026-05-04 19:14 53.05680 -124.54187 30061 ft 445 kts 303°
2026-05-04 19:15 53.08643 -124.63213 30048 ft 444 kts 303°
2026-05-04 19:15 53.11634 -124.72353 30065 ft 444 kts 302°
2026-05-04 19:16 53.14591 -124.81423 30062 ft 443 kts 302°
2026-05-04 19:16 53.17529 -124.90467 30062 ft 444 kts 302°
2026-05-04 19:17 53.20470 -124.99552 30063 ft 445 kts 302°
2026-05-04 19:17 53.23419 -125.08701 30063 ft 445 kts 302°
2026-05-04 19:18 53.26365 -125.17873 30061 ft 447 kts 302°
2026-05-04 19:18 53.29294 -125.27028 30062 ft 447 kts 302°
2026-05-04 19:19 53.32217 -125.36196 30060 ft 447 kts 302°
2026-05-04 19:19 53.35134 -125.45383 30050 ft 445 kts 301°
2026-05-04 19:20 53.38043 -125.54575 30050 ft 445 kts 301°
2026-05-04 19:20 53.40945 -125.63784 30054 ft 446 kts 301°
2026-05-04 19:21 53.43863 -125.73075 30059 ft 447 kts 301°
2026-05-04 19:21 53.46768 -125.82364 30052 ft 448 kts 300°
2026-05-04 19:22 53.49678 -125.91704 30051 ft 448 kts 300°
2026-05-04 19:22 53.52567 -126.01013 30050 ft 447 kts 300°
2026-05-04 19:23 53.55446 -126.10326 30047 ft 447 kts 300°
2026-05-04 19:23 53.58304 -126.19605 30045 ft 448 kts 300°
2026-05-04 19:24 53.61176 -126.28967 30043 ft 447 kts 300°
2026-05-04 19:24 53.64030 -126.38306 30054 ft 448 kts 300°
2026-05-04 19:25 53.66885 -126.47687 30054 ft 448 kts 300°
2026-05-04 19:25 53.69726 -126.57057 30055 ft 449 kts 300°
2026-05-04 19:26 53.72579 -126.66505 30049 ft 448 kts 300°
2026-05-04 19:26 53.75411 -126.75917 30038 ft 449 kts 299°
2026-05-04 19:27 53.78244 -126.85371 30036 ft 449 kts 299°
2026-05-04 19:27 53.81063 -126.94819 30034 ft 450 kts 299°
2026-05-04 19:28 53.83859 -127.04221 30037 ft 451 kts 299°
2026-05-04 19:28 53.86676 -127.13740 30042 ft 451 kts 299°
2026-05-04 19:29 53.89483 -127.23259 30047 ft 450 kts 299°
2026-05-04 19:29 53.92281 -127.32780 30048 ft 451 kts 298°
2026-05-04 19:30 53.95054 -127.42265 30045 ft 450 kts 298°
2026-05-04 19:30 53.97836 -127.51814 30043 ft 450 kts 298°
2026-05-04 19:31 54.00611 -127.61378 30047 ft 450 kts 298°
2026-05-04 19:31 54.03347 -127.70847 30052 ft 451 kts 298°
2026-05-04 19:32 54.06096 -127.80399 30055 ft 451 kts 298°
2026-05-04 19:32 54.08858 -127.90031 30058 ft 451 kts 298°
2026-05-04 19:33 54.11603 -127.99649 30065 ft 450 kts 297°
2026-05-04 19:33 54.14350 -128.09311 30057 ft 451 kts 297°
2026-05-04 19:34 54.17078 -128.18947 30045 ft 451 kts 297°
2026-05-04 19:34 54.19804 -128.28618 30038 ft 451 kts 297°
2026-05-04 19:35 54.22517 -128.38281 30017 ft 451 kts 297°
2026-05-04 19:35 54.25240 -128.48021 30005 ft 451 kts 297°
2026-05-04 19:36 54.27961 -128.57793 30003 ft 451 kts 297°
2026-05-04 19:36 54.30647 -128.67480 30007 ft 452 kts 296°
2026-05-04 19:37 54.33344 -128.77249 30003 ft 452 kts 296°
2026-05-04 19:37 54.36034 -128.87033 30021 ft 451 kts 296°
2026-05-04 19:38 54.38691 -128.96742 30031 ft 452 kts 296°
2026-05-04 19:38 54.41355 -129.06512 30022 ft 452 kts 296°
2026-05-04 19:39 54.43994 -129.16234 30018 ft 453 kts 296°
2026-05-04 19:39 54.46646 -129.26051 30014 ft 452 kts 296°
2026-05-04 19:40 54.49279 -129.35831 29999 ft 453 kts 296°
2026-05-04 19:40 54.51911 -129.45656 29986 ft 453 kts 295°
2026-05-04 19:41 54.54530 -129.55469 29974 ft 453 kts 295°
2026-05-04 19:41 54.57131 -129.65262 29971 ft 454 kts 295°
2026-05-04 19:42 54.59739 -129.75122 29967 ft 455 kts 295°
2026-05-04 19:42 54.62347 -129.85022 29961 ft 454 kts 295°
2026-05-04 19:43 54.64935 -129.94896 29961 ft 453 kts 295°
2026-05-04 19:43 54.67520 -130.04797 29956 ft 454 kts 295°
2026-05-04 19:44 54.70113 -130.14767 29961 ft 454 kts 294°
2026-05-04 19:44 54.72682 -130.24698 29973 ft 454 kts 294°
2026-05-04 19:45 54.75256 -130.34688 29972 ft 454 kts 294°
2026-05-04 19:45 54.77813 -130.44659 29971 ft 455 kts 294°
2026-05-04 19:46 54.80366 -130.54658 29963 ft 455 kts 294°
2026-05-04 19:46 54.82919 -130.64706 29957 ft 456 kts 294°
2026-05-04 19:47 54.85482 -130.74831 29957 ft 456 kts 293°
2026-05-04 19:47 54.88029 -130.84947 29960 ft 455 kts 293°
2026-05-04 19:48 54.90530 -130.94919 29964 ft 455 kts 293°
2026-05-04 19:48 54.93049 -131.05013 29965 ft 456 kts 293°
2026-05-04 19:49 54.95570 -131.15157 29968 ft 456 kts 292°
2026-05-04 19:49 54.98072 -131.25273 29970 ft 456 kts 292°
2026-05-04 19:50 55.00561 -131.35388 29975 ft 455 kts 292°
2026-05-04 19:50 55.03059 -131.45581 29990 ft 457 kts 292°
2026-05-04 19:51 55.05901 -131.55467 30011 ft 458 kts 304°
2026-05-04 19:51 55.10356 -131.63452 30015 ft 463 kts 322°
2026-05-04 19:52 55.16081 -131.68968 30017 ft 467 kts 329°
2026-05-04 19:52 55.21790 -131.74393 30013 ft 468 kts 328°
2026-05-04 19:53 55.27446 -131.80043 30016 ft 468 kts 327°
2026-05-04 19:53 55.33047 -131.85777 30014 ft 467 kts 327°
2026-05-04 19:54 55.38657 -131.91591 30010 ft 467 kts 326°
2026-05-04 19:54 55.44250 -131.97429 30012 ft 468 kts 326°
2026-05-04 19:55 55.49845 -132.03296 30012 ft 468 kts 326°
2026-05-04 19:55 55.55461 -132.09210 30011 ft 468 kts 326°
2026-05-04 19:56 55.61075 -132.15141 30004 ft 468 kts 326°
2026-05-04 19:56 55.66575 -132.20975 30004 ft 470 kts 326°
2026-05-04 19:57 55.72178 -132.26938 30004 ft 469 kts 326°
2026-05-04 19:57 55.77817 -132.32959 30007 ft 471 kts 326°
2026-05-04 19:58 55.83447 -132.38991 30009 ft 471 kts 326°
2026-05-04 19:58 55.89032 -132.44997 30012 ft 471 kts 326°
2026-05-04 19:59 55.94653 -132.51060 30016 ft 471 kts 326°
2026-05-04 19:59 56.00228 -132.57094 30020 ft 471 kts 326°
2026-05-04 20:00 56.05806 -132.63153 30019 ft 471 kts 326°
2026-05-04 20:00 56.10881 -132.68684 30027 ft 471 kts 325°
2026-05-04 20:01 56.16913 -132.75281 30033 ft 471 kts 325°
2026-05-04 20:01 56.22501 -132.81413 30034 ft 472 kts 325°
2026-05-04 20:02 56.28126 -132.87608 30044 ft 473 kts 325°
2026-05-04 20:02 56.33750 -132.93823 30045 ft 474 kts 325°
2026-05-04 20:03 56.39395 -133.00082 30051 ft 473 kts 325°
2026-05-04 20:03 56.44967 -133.06331 30043 ft 472 kts 322°
2026-05-04 20:04 56.49752 -133.14113 30059 ft 467 kts 311°
2026-05-04 20:04 56.54307 -133.22584 30052 ft 469 kts 311°
2026-05-04 20:05 56.58827 -133.31097 30050 ft 468 kts 311°
2026-05-04 20:05 56.63342 -133.39665 30046 ft 468 kts 311°
2026-05-04 20:06 56.67698 -133.47974 30043 ft 468 kts 310°
2026-05-04 20:06 56.72212 -133.56618 30035 ft 470 kts 310°
2026-05-04 20:07 56.76599 -133.65051 30042 ft 470 kts 309°
2026-05-04 20:07 56.81164 -133.73863 30070 ft 469 kts 309°
2026-05-04 20:08 56.85666 -133.82587 30075 ft 471 kts 309°
2026-05-04 20:08 56.90140 -133.91284 30080 ft 469 kts 309°
2026-05-04 20:09 56.94605 -134.00001 30097 ft 470 kts 309°
2026-05-04 20:09 56.99092 -134.08792 30091 ft 470 kts 309°
2026-05-04 20:10 57.03562 -134.17583 30077 ft 471 kts 309°
2026-05-04 20:10 57.08042 -134.26430 30066 ft 473 kts 309°
2026-05-04 20:11 57.12514 -134.35289 30054 ft 472 kts 309°
2026-05-04 20:11 57.16970 -134.44154 30054 ft 472 kts 309°
2026-05-04 20:12 57.21449 -134.53096 30059 ft 472 kts 309°
2026-05-04 20:12 57.25895 -134.62015 30055 ft 472 kts 309°
2026-05-04 20:13 57.30364 -134.71004 30060 ft 472 kts 308°
2026-05-04 20:13 57.34791 -134.79947 30089 ft 471 kts 308°
2026-05-04 20:14 57.39213 -134.88916 30088 ft 473 kts 308°
2026-05-04 20:14 57.43651 -134.97951 30069 ft 472 kts 308°
2026-05-04 20:15 57.48107 -135.07056 30083 ft 472 kts 308°
2026-05-04 20:15 57.52527 -135.16127 30083 ft 474 kts 308°
2026-05-04 20:16 57.56962 -135.25259 30084 ft 473 kts 308°
2026-05-04 20:16 57.61368 -135.34370 30090 ft 473 kts 308°
2026-05-04 20:17 57.65781 -135.43532 30078 ft 474 kts 308°
2026-05-04 20:17 57.70201 -135.52745 30083 ft 474 kts 308°
2026-05-04 20:18 57.74627 -135.62007 30078 ft 475 kts 307°
2026-05-04 20:18 57.78970 -135.71127 30082 ft 474 kts 307°
2026-05-04 20:19 57.83349 -135.80362 30077 ft 474 kts 307°
2026-05-04 20:19 57.87734 -135.89645 30065 ft 473 kts 307°
2026-05-04 20:20 57.92098 -135.98926 30052 ft 476 kts 306°
2026-05-04 20:20 57.96488 -136.08298 30053 ft 477 kts 306°
2026-05-04 20:21 58.00862 -136.17668 30063 ft 476 kts 306°
2026-05-04 20:21 58.07403 -136.31757 30072 ft 477 kts 306°
2026-05-04 20:22 58.11772 -136.41214 30070 ft 477 kts 306°
2026-05-04 20:22 58.16148 -136.50726 30080 ft 478 kts 306°
2026-05-04 20:23 58.20492 -136.60202 30079 ft 477 kts 306°
2026-05-04 20:23 58.24810 -136.69665 30088 ft 479 kts 305°
2026-05-04 20:24 58.29177 -136.79272 30079 ft 478 kts 305°
2026-05-04 20:24 58.33506 -136.88838 30069 ft 479 kts 306°
2026-05-04 20:25 58.37836 -136.98442 30066 ft 480 kts 305°
2026-05-04 20:25 58.42163 -137.08081 30060 ft 480 kts 305°
2026-05-04 20:26 58.46483 -137.17741 30067 ft 479 kts 305°
2026-05-04 20:26 58.50813 -137.27467 30069 ft 480 kts 305°
2026-05-04 20:27 58.55107 -137.37151 30065 ft 480 kts 305°
2026-05-04 20:27 58.59401 -137.46876 30059 ft 481 kts 305°
2026-05-04 20:28 58.63719 -137.56696 30057 ft 482 kts 305°
2026-05-04 20:28 58.68003 -137.66478 30052 ft 481 kts 304°
2026-05-04 20:29 58.72310 -137.76355 30062 ft 482 kts 304°
2026-05-04 20:29 58.76589 -137.86212 30068 ft 484 kts 304°
2026-05-04 20:30 58.80886 -137.96149 30067 ft 482 kts 304°
2026-05-04 20:30 58.85151 -138.06056 30072 ft 482 kts 304°
2026-05-04 20:31 58.89434 -138.16046 30073 ft 484 kts 303°
2026-05-04 20:31 58.93700 -138.26041 30085 ft 485 kts 303°
2026-05-04 20:32 58.95839 -138.31068 30464 ft 486 kts 303°
2026-05-04 20:32 58.97974 -138.36093 31010 ft 483 kts 303°
2026-05-04 20:32 59.00096 -138.41100 31501 ft 481 kts 303°
2026-05-04 20:32 59.02207 -138.46091 31924 ft 481 kts 303°
2026-05-04 20:33 59.04288 -138.51024 32354 ft 479 kts 303°
2026-05-04 20:33 59.06393 -138.56024 32805 ft 477 kts 303°
2026-05-04 20:33 59.08485 -138.61005 33159 ft 477 kts 303°
2026-05-04 20:33 59.10556 -138.65944 33552 ft 476 kts 302°
2026-05-04 20:34 59.12666 -138.70991 33857 ft 475 kts 302°
2026-05-04 20:34 59.14691 -138.75822 34088 ft 454 kts 301°
2026-05-04 20:34 59.18622 -138.85284 34080 ft 452 kts 301°
2026-05-04 20:35 59.22643 -138.95001 34078 ft 464 kts 301°
2026-05-04 20:35 59.26704 -139.04848 34076 ft 473 kts 301°
2026-05-04 20:36 59.30865 -139.14969 34073 ft 476 kts 301°
2026-05-04 20:36 59.34998 -139.25063 34073 ft 474 kts 301°
2026-05-04 20:37 59.39119 -139.35178 34080 ft 475 kts 301°
2026-05-04 20:37 59.43206 -139.45252 34083 ft 474 kts 301°
2026-05-04 20:38 59.47319 -139.55438 34095 ft 477 kts 301°
2026-05-04 20:38 59.50692 -139.65974 34108 ft 459 kts 285°
2026-05-04 20:39 59.53013 -139.77606 34104 ft 458 kts 282°
2026-05-04 20:39 59.55147 -139.89371 34094 ft 455 kts 281°
2026-05-04 20:40 59.57185 -140.01154 34089 ft 457 kts 281°
2026-05-04 20:40 59.59195 -140.13063 34085 ft 458 kts 281°
2026-05-04 20:41 59.61166 -140.24905 34080 ft 457 kts 281°
2026-05-04 20:41 59.63134 -140.36848 34086 ft 460 kts 280°
2026-05-04 20:42 59.65090 -140.48804 34076 ft 458 kts 280°
2026-05-04 20:42 59.67035 -140.60792 34075 ft 459 kts 280°
2026-05-04 20:43 59.68967 -140.72775 34080 ft 459 kts 279°
2026-05-04 20:43 59.70900 -140.84850 34085 ft 460 kts 279°
2026-05-04 20:44 59.72802 -140.96811 34078 ft 459 kts 279°
2026-05-04 20:44 59.74708 -141.08884 34086 ft 461 kts 279°
2026-05-04 20:45 59.76613 -141.21033 34087 ft 461 kts 279°
2026-05-04 20:45 59.78497 -141.33136 34093 ft 463 kts 279°
2026-05-04 20:46 59.80378 -141.45297 34090 ft 463 kts 279°
2026-05-04 20:46 59.82250 -141.57500 34093 ft 466 kts 279°
2026-05-04 20:47 59.84132 -141.69842 34090 ft 464 kts 278°
2026-05-04 20:47 59.85975 -141.82025 34093 ft 465 kts 278°
2026-05-04 20:48 59.87823 -141.94333 34093 ft 465 kts 278°
2026-05-04 20:48 59.89659 -142.06647 34096 ft 467 kts 278°
2026-05-04 20:49 59.91483 -142.18964 34086 ft 466 kts 278°
2026-05-04 20:49 59.93304 -142.31366 34091 ft 468 kts 278°
2026-05-04 20:50 59.95111 -142.43751 34090 ft 468 kts 278°
2026-05-04 20:50 59.96907 -142.56155 34087 ft 467 kts 278°
2026-05-04 20:51 59.98687 -142.68558 34089 ft 471 kts 277°
2026-05-04 20:51 60.00467 -142.81041 34082 ft 469 kts 277°
2026-05-04 20:52 60.02245 -142.93622 34078 ft 472 kts 277°
2026-05-04 20:52 60.04023 -143.06284 34078 ft 471 kts 277°
2026-05-04 20:53 60.05787 -143.18962 34083 ft 475 kts 277°
2026-05-04 20:53 60.07541 -143.31650 34076 ft 473 kts 277°
2026-05-04 20:54 60.09287 -143.44394 34074 ft 475 kts 277°
2026-05-04 20:54 60.11032 -143.57240 34049 ft 475 kts 277°
2026-05-04 20:55 60.12520 -143.68269 34054 ft 476 kts 276°
2026-05-04 20:55 60.14224 -143.80992 34054 ft 472 kts 276°
2026-05-04 20:56 60.15925 -143.93820 34055 ft 476 kts 276°
2026-05-04 20:56 60.17633 -144.06789 34051 ft 477 kts 276°
2026-05-04 20:57 60.19318 -144.19698 34043 ft 477 kts 276°
2026-05-04 20:57 60.20993 -144.32642 34037 ft 478 kts 276°
2026-05-04 20:58 60.22656 -144.45604 34034 ft 479 kts 276°
2026-05-04 20:58 60.24303 -144.58554 34031 ft 481 kts 276°
2026-05-04 20:59 60.25957 -144.71669 34037 ft 478 kts 275°
2026-05-04 20:59 60.27575 -144.84619 34042 ft 482 kts 275°
2026-05-04 21:00 60.29189 -144.97650 34048 ft 482 kts 275°
2026-05-04 21:00 60.30804 -145.10797 34046 ft 483 kts 275°
2026-05-04 21:01 60.32386 -145.23795 34038 ft 480 kts 275°
2026-05-04 21:01 60.33965 -145.36903 34039 ft 482 kts 275°
2026-05-04 21:02 60.35537 -145.50067 34046 ft 484 kts 275°
2026-05-04 21:02 60.37094 -145.63229 34048 ft 486 kts 275°
2026-05-04 21:03 60.38635 -145.76361 34042 ft 484 kts 274°
2026-05-04 21:03 60.40167 -145.89549 34037 ft 485 kts 274°
2026-05-04 21:04 60.41696 -146.02840 34038 ft 484 kts 274°
2026-05-04 21:04 60.43205 -146.16087 34030 ft 487 kts 274°
2026-05-04 21:05 60.44714 -146.29437 34024 ft 482 kts 274°
2026-05-04 21:05 60.45453 -146.36015 33648 ft 482 kts 273°
2026-05-04 21:05 60.46179 -146.42557 33087 ft 481 kts 274°
2026-05-04 21:06 60.46910 -146.49153 32446 ft 482 kts 274°
2026-05-04 21:06 60.47644 -146.55815 31722 ft 482 kts 274°
2026-05-04 21:06 60.48425 -146.62367 31155 ft 484 kts 278°
2026-05-04 21:06 60.49526 -146.68884 30596 ft 487 kts 280°
2026-05-04 21:07 60.50620 -146.75372 30062 ft 491 kts 279°
2026-05-04 21:07 60.51708 -146.81895 29569 ft 497 kts 280°
2026-05-04 21:07 60.52818 -146.88600 29054 ft 498 kts 280°
2026-05-04 21:07 60.53906 -146.95207 28522 ft 492 kts 281°
2026-05-04 21:08 60.54966 -147.01680 28012 ft 485 kts 281°
2026-05-04 21:08 60.56025 -147.08173 27487 ft 480 kts 281°
2026-05-04 21:08 60.57062 -147.14586 26973 ft 478 kts 282°
2026-05-04 21:08 60.58086 -147.20932 26479 ft 477 kts 282°
2026-05-04 21:09 60.59114 -147.27338 25976 ft 474 kts 282°
2026-05-04 21:09 60.60131 -147.33679 25467 ft 468 kts 282°
2026-05-04 21:09 60.61123 -147.39899 24969 ft 465 kts 282°
2026-05-04 21:09 60.62122 -147.46194 24486 ft 463 kts 283°
2026-05-04 21:10 60.63106 -147.52397 24003 ft 459 kts 283°
2026-05-04 21:10 60.64067 -147.58498 23502 ft 455 kts 283°
2026-05-04 21:10 60.65035 -147.64624 23019 ft 452 kts 283°
2026-05-04 21:10 60.65981 -147.70641 22542 ft 449 kts 282°
2026-05-04 21:11 60.66930 -147.76753 22052 ft 447 kts 282°
2026-05-04 21:11 60.67870 -147.82759 21560 ft 446 kts 282°
2026-05-04 21:11 60.68801 -147.88800 21082 ft 444 kts 282°
2026-05-04 21:11 60.69729 -147.94785 20610 ft 440 kts 282°
2026-05-04 21:12 60.70656 -148.00810 20129 ft 439 kts 282°
2026-05-04 21:12 60.71576 -148.06807 19641 ft 436 kts 282°
2026-05-04 21:12 60.72488 -148.12732 19161 ft 433 kts 281°
2026-05-04 21:12 60.73363 -148.18512 18741 ft 430 kts 281°
2026-05-04 21:13 60.74256 -148.24393 18247 ft 427 kts 281°
2026-05-04 21:13 60.75117 -148.30124 17809 ft 423 kts 281°
2026-05-04 21:13 60.75977 -148.35884 17356 ft 418 kts 281°
2026-05-04 21:13 60.76829 -148.41579 16907 ft 416 kts 282°
2026-05-04 21:14 60.77657 -148.47176 16459 ft 417 kts 281°
2026-05-04 21:14 60.78505 -148.52899 15998 ft 416 kts 282°
2026-05-04 21:14 60.79347 -148.58603 15545 ft 411 kts 282°
2026-05-04 21:14 60.80157 -148.64111 15106 ft 408 kts 281°
2026-05-04 21:15 60.80959 -148.69557 14671 ft 405 kts 281°
2026-05-04 21:15 60.81774 -148.75159 14205 ft 402 kts 281°
2026-05-04 21:15 60.82584 -148.80725 13772 ft 401 kts 281°
2026-05-04 21:15 60.83396 -148.86330 13305 ft 401 kts 281°
2026-05-04 21:16 60.84199 -148.91855 12859 ft 398 kts 281°
2026-05-04 21:16 60.84998 -148.97403 12413 ft 398 kts 282°
2026-05-04 21:16 60.85790 -149.02960 11999 ft 398 kts 282°
2026-05-04 21:16 60.86578 -149.08444 11552 ft 398 kts 283°
2026-05-04 21:17 60.87369 -149.13977 11129 ft 397 kts 283°
2026-05-04 21:17 60.88132 -149.19357 10680 ft 394 kts 284°
2026-05-04 21:17 60.89124 -149.24731 10290 ft 396 kts 294°
2026-05-04 21:17 60.90311 -149.29814 10228 ft 383 kts 292°
2026-05-04 21:18 60.91429 -149.34721 10137 ft 367 kts 292°
2026-05-04 21:18 60.92496 -149.39423 9747 ft 352 kts 292°
2026-05-04 21:18 60.93530 -149.43976 9431 ft 336 kts 292°
2026-05-04 21:18 60.94506 -149.48288 9210 ft 321 kts 292°
2026-05-04 21:19 60.95431 -149.52380 9218 ft 311 kts 293°
2026-05-04 21:19 60.96344 -149.56422 9263 ft 313 kts 292°
2026-05-04 21:19 60.97279 -149.60577 9230 ft 318 kts 292°
2026-05-04 21:19 60.98222 -149.64767 9108 ft 316 kts 292°
2026-05-04 21:20 60.99090 -149.68631 8987 ft 310 kts 291°
2026-05-04 21:20 61.00030 -149.72638 8804 ft 308 kts 301°
2026-05-04 21:20 61.01446 -149.76013 8616 ft 310 kts 317°
2026-05-04 21:20 61.03041 -149.79125 8250 ft 314 kts 316°
2026-05-04 21:21 61.04648 -149.82262 7879 ft 315 kts 317°
2026-05-04 21:21 61.06273 -149.85413 7486 ft 316 kts 318°
2026-05-04 21:21 61.07890 -149.88536 6968 ft 317 kts 318°
2026-05-04 21:21 61.09390 -149.91850 6750 ft 302 kts 300°
2026-05-04 21:22 61.10094 -149.95732 6617 ft 283 kts 272°
2026-05-04 21:22 61.10236 -149.99771 6513 ft 273 kts 268°
2026-05-04 21:22 61.10300 -150.03717 6251 ft 272 kts 266°
2026-05-04 21:22 61.10314 -150.07625 6018 ft 269 kts 265°
2026-05-04 21:23 61.10298 -150.11479 5765 ft 267 kts 265°
2026-05-04 21:23 61.10269 -150.15306 5554 ft 263 kts 266°
2026-05-04 21:23 61.10233 -150.19028 5392 ft 258 kts 266°
2026-05-04 21:23 61.10192 -150.22707 5285 ft 250 kts 266°
2026-05-04 21:24 61.10149 -150.26257 5167 ft 248 kts 266°
2026-05-04 21:24 61.10102 -150.29848 5010 ft 249 kts 265°
2026-05-04 21:24 61.10016 -150.33450 4864 ft 249 kts 265°
2026-05-04 21:24 61.09921 -150.36980 4706 ft 246 kts 265°
2026-05-04 21:25 61.09827 -150.40497 4558 ft 243 kts 266°
2026-05-04 21:25 61.09735 -150.43964 4422 ft 244 kts 266°
2026-05-04 21:25 61.09640 -150.47494 4280 ft 246 kts 266°
2026-05-04 21:25 61.09545 -150.51041 4130 ft 245 kts 266°
2026-05-04 21:26 61.09450 -150.54535 3978 ft 243 kts 267°
2026-05-04 21:26 61.09652 -150.57951 3827 ft 237 kts 298°
2026-05-04 21:26 61.10634 -150.60494 3719 ft 220 kts 334°
2026-05-04 21:26 61.12027 -150.61350 3519 ft 204 kts 11°
2026-05-04 21:27 61.13256 -150.60341 3387 ft 185 kts 47°
2026-05-04 21:27 61.13863 -150.58107 3154 ft 180 kts 75°
2026-05-04 21:27 61.14183 -150.55583 2825 ft 183 kts 75°
2026-05-04 21:27 61.14527 -150.52988 2487 ft 186 kts 74°
2026-05-04 21:28 61.14867 -150.50411 2167 ft 189 kts 73°
2026-05-04 21:28 61.15213 -150.47781 1971 ft 184 kts 74°
2026-05-04 21:28 61.15565 -150.45270 1812 ft 180 kts 69°
2026-05-04 21:28 61.16058 -150.42908 1677 ft 178 kts 65°
2026-05-04 21:29 61.16556 -150.40530 1562 ft 178 kts 73°
2026-05-04 21:29 61.16658 -150.38032 1583 ft 172 kts 88°
2026-05-04 21:29 61.16665 -150.35629 1566 ft 161 kts 87°
2026-05-04 21:29 61.16684 -150.33315 1569 ft 159 kts 86°
2026-05-04 21:30 61.16698 -150.30980 1582 ft 162 kts 87°
2026-05-04 21:30 61.16711 -150.28630 1562 ft 161 kts 87°
2026-05-04 21:30 61.16722 -150.26291 1571 ft 162 kts 87°
2026-05-04 21:30 61.16732 -150.23940 1573 ft 163 kts 87°
2026-05-04 21:31 61.16748 -150.19214 1565 ft 153 kts 88°
2026-05-04 21:31 61.16752 -150.17139 1431 ft 140 kts 87°
2026-05-04 21:31 61.16758 -150.15164 1314 ft 134 kts 87°
2026-05-04 21:32 61.16765 -150.13150 1115 ft 140 kts 88°
2026-05-04 21:32 61.16769 -150.11110 886 ft 140 kts 88°
2026-05-04 21:32 61.16773 -150.09082 678 ft 140 kts 88°
2026-05-04 21:32 61.16771 -150.07027 485 ft 141 kts 89°
2026-05-04 21:33 61.16778 -150.04976 307 ft 142 kts 88°
2026-05-04 21:33 61.16775 -150.02946 169 ft 136 kts 89°
2026-05-04 21:33 61.16780 -150.01209 163 ft 92 kts 90°
2026-05-04 21:33 61.16785 -150.00284 163 ft 35 kts 90°
2026-05-04 21:34 61.16788 -149.99870 163 ft 24 kts 85°
2026-05-04 21:34 61.16820 -149.99614 163 ft 12 kts 63°
2026-05-04 21:34 61.16853 -149.99509 163 ft 0 kts 52°
2026-05-04 21:34 61.16876 -149.99449 163 ft 7 kts 49°
2026-05-04 21:35 61.16942 -149.99333 163 ft 15 kts 36°
2026-05-04 21:35 61.17013 -149.99239 163 ft 11 kts 32°
2026-05-04 21:35 61.17099 -149.99110 163 ft 12 kts 38°
2026-05-04 21:35 61.17133 -149.99046 163 ft 2 kts 46°
2026-05-04 21:36 61.17136 -149.99037 163 ft 0 kts 47°
2026-05-04 21:36 61.17141 -149.99034 163 ft 1 kts 20°
2026-05-04 21:36 61.17154 -149.99045 163 ft 0 kts 327°
2026-05-04 21:36 61.17159 -149.99052 163 ft 1 kts 322°
2026-05-04 21:37 61.17175 -149.99078 163 ft 3 kts 323°
2026-05-04 21:37 61.17204 -149.99110 163 ft 5 kts 339°
2026-05-04 21:37 61.17242 -149.99136 163 ft 5 kts 341°
2026-05-04 21:37 61.17283 -149.99165 162 ft 7 kts 341°
2026-05-04 21:38 61.17350 -149.99210 163 ft 12 kts 343°
2026-05-04 21:38 61.17387 -149.99232 163 ft 3 kts 352°
2026-05-04 21:38 61.17418 -149.99220 163 ft 5 kts 23°
2026-05-04 21:38 61.17445 -149.99162 163 ft 6 kts 62°
2026-05-04 21:39 61.17457 -149.99104 163 ft 2 kts 70°
2026-05-04 21:39 61.17458 -149.99097 162 ft 0 kts 68°